TimePST,TemperatureF,Dew PointF,Humidity,Sea Level PressureIn,VisibilityMPH,Wind Direction,Wind SpeedMPH,Gust SpeedMPH,PrecipitationIn,Events,Conditions,WindDirDegrees,DateUTC
12:10 AM,46.4,17.6,32,30.24,10.0,NW,8.1,-,N/A,,Clear,320,2012-11-24 08:10:00
12:55 AM,46.4,17.6,32,30.23,10.0,NNW,8.1,-,N/A,,Clear,330,2012-11-24 08:55:00
1:15 AM,46.4,19.4,34,30.23,10.0,NW,8.1,-,N/A,,Clear,320,2012-11-24 09:15:00
1:35 AM,46.4,17.6,32,30.23,10.0,NW,9.2,-,N/A,,Clear,320,2012-11-24 09:35:00
2:15 AM,44.6,17.6,34,30.22,10.0,NNW,8.1,-,N/A,,Clear,330,2012-11-24 10:15:00
2:35 AM,44.6,17.6,34,30.22,10.0,NNW,8.1,-,N/A,,Clear,330,2012-11-24 10:35:00
2:55 AM,44.6,17.6,34,30.22,10.0,NNW,8.1,-,N/A,,Clear,330,2012-11-24 10:55:00
3:15 AM,44.6,17.6,34,30.22,10.0,NW,8.1,-,N/A,,Clear,320,2012-11-24 11:15:00
3:30 AM,44.6,17.6,34,30.21,10.0,NNW,8.1,-,N/A,,Clear,330,2012-11-24 11:30:00
3:50 AM,44.6,17.6,34,30.21,10.0,NNW,6.9,-,N/A,,Clear,330,2012-11-24 11:50:00
4:15 AM,42.8,17.6,36,30.21,10.0,Calm,Calm,-,N/A,,Clear,0,2012-11-24 12:15:00
4:35 AM,42.8,17.6,36,30.21,10.0,Calm,Calm,-,N/A,,Clear,0,2012-11-24 12:35:00
4:55 AM,42.8,17.6,36,30.21,10.0,Calm,Calm,-,N/A,,Clear,0,2012-11-24 12:55:00
5:15 AM,41.0,17.6,39,30.21,10.0,Calm,Calm,-,N/A,,Clear,0,2012-11-24 13:15:00
5:35 AM,41.0,17.6,39,30.21,10.0,Calm,Calm,-,N/A,,Clear,0,2012-11-24 13:35:00
5:55 AM,41.0,17.6,39,30.21,10.0,Calm,Calm,-,N/A,,Clear,0,2012-11-24 13:55:00
6:15 AM,39.2,17.6,42,30.22,10.0,Calm,Calm,-,N/A,,Clear,0,2012-11-24 14:15:00
6:35 AM,41.0,17.6,39,30.22,10.0,Calm,Calm,-,N/A,,Clear,0,2012-11-24 14:35:00
6:55 AM,41.0,17.6,39,30.23,10.0,Calm,Calm,-,N/A,,Clear,0,2012-11-24 14:55:00
7:15 AM,42.8,17.6,36,30.23,10.0,Calm,Calm,-,N/A,,Clear,0,2012-11-24 15:15:00
7:35 AM,48.2,19.4,32,30.23,10.0,Calm,Calm,-,N/A,,Clear,0,2012-11-24 15:35:00
7:55 AM,53.6,19.4,26,30.23,10.0,Calm,Calm,-,N/A,,Clear,0,2012-11-24 15:55:00
8:15 AM,55.4,19.4,25,30.23,10.0,Calm,Calm,-,N/A,,Clear,0,2012-11-24 16:15:00
8:35 AM,55.4,19.4,25,30.23,10.0,Calm,Calm,-,N/A,,Clear,0,2012-11-24 16:35:00
8:55 AM,57.2,19.4,23,30.23,10.0,Calm,Calm,-,N/A,,Clear,0,2012-11-24 16:55:00
9:15 AM,57.2,19.4,23,30.23,10.0,Calm,Calm,-,N/A,,Clear,0,2012-11-24 17:15:00
9:35 AM,59.0,21.2,23,30.23,10.0,Calm,Calm,-,N/A,,Clear,0,2012-11-24 17:35:00
9:55 AM,60.8,19.4,20,30.23,10.0,Calm,Calm,-,N/A,,Clear,0,2012-11-24 17:55:00
10:15 AM,62.6,21.2,20,30.22,10.0,Calm,Calm,-,N/A,,Clear,0,2012-11-24 18:15:00
10:35 AM,62.6,19.4,19,30.21,10.0,Calm,Calm,-,N/A,,Clear,0,2012-11-24 18:35:00
10:55 AM,64.4,19.4,18,30.20,10.0,Calm,Calm,-,N/A,,Clear,0,2012-11-24 18:55:00
11:15 AM,64.4,19.4,18,30.19,10.0,Calm,Calm,-,N/A,,Clear,0,2012-11-24 19:15:00
11:55 AM,66.2,19.4,17,30.16,10.0,Calm,Calm,-,N/A,,Clear,0,2012-11-24 19:55:00
12:15 PM,68.0,19.4,16,30.15,10.0,Calm,Calm,-,N/A,,Clear,0,2012-11-24 20:15:00
12:35 PM,68.0,19.4,16,30.14,10.0,Calm,Calm,-,N/A,,Clear,0,2012-11-24 20:35:00
12:55 PM,68.0,19.4,16,30.13,10.0,Calm,Calm,-,N/A,,Clear,0,2012-11-24 20:55:00
1:15 PM,69.8,19.4,15,30.12,10.0,Calm,Calm,-,N/A,,Clear,0,2012-11-24 21:15:00
1:35 PM,69.8,19.4,15,30.11,10.0,Calm,Calm,-,N/A,,Clear,0,2012-11-24 21:35:00
1:55 PM,69.8,19.4,15,30.10,10.0,Calm,Calm,-,N/A,,Clear,0,2012-11-24 21:55:00
2:15 PM,69.8,19.4,15,30.10,10.0,Calm,Calm,-,N/A,,Clear,0,2012-11-24 22:15:00
2:35 PM,71.6,19.4,14,30.09,10.0,Calm,Calm,-,N/A,,Clear,0,2012-11-24 22:35:00
2:55 PM,69.8,19.4,15,30.09,10.0,Calm,Calm,-,N/A,,Clear,0,2012-11-24 22:55:00
3:15 PM,71.6,19.4,14,30.09,10.0,Calm,Calm,-,N/A,,Clear,0,2012-11-24 23:15:00
3:35 PM,69.8,19.4,15,30.08,10.0,Calm,Calm,-,N/A,,Clear,0,2012-11-24 23:35:00
3:55 PM,69.8,19.4,15,30.08,10.0,Calm,Calm,-,N/A,,Clear,0,2012-11-24 23:55:00
4:15 PM,68.0,19.4,16,30.07,10.0,Calm,Calm,-,N/A,,Clear,0,2012-11-25 00:15:00
4:35 PM,68.0,19.4,16,30.07,10.0,Calm,Calm,-,N/A,,Clear,0,2012-11-25 00:35:00
4:55 PM,66.2,19.4,17,30.07,10.0,Calm,Calm,-,N/A,,Clear,0,2012-11-25 00:55:00
5:15 PM,64.4,19.4,18,30.07,10.0,Calm,Calm,-,N/A,,Clear,0,2012-11-25 01:15:00
5:30 PM,57.2,17.6,21,30.07,10.0,Calm,Calm,-,N/A,,Clear,0,2012-11-25 01:30:00
5:55 PM,53.6,17.6,24,30.07,10.0,Calm,Calm,-,N/A,,Clear,0,2012-11-25 01:55:00
6:15 PM,53.6,17.6,24,30.07,10.0,Calm,Calm,-,N/A,,Clear,0,2012-11-25 02:15:00
6:25 PM,53.6,15.8,22,30.07,10.0,Calm,Calm,-,N/A,,Clear,0,2012-11-25 02:25:00
6:55 PM,51.8,17.6,26,30.06,10.0,NW,10.4,-,N/A,,Clear,320,2012-11-25 02:55:00
7:15 PM,51.8,17.6,26,30.06,10.0,NW,9.2,-,N/A,,Clear,320,2012-11-25 03:15:00
7:35 PM,51.8,19.4,28,30.06,10.0,NW,9.2,-,N/A,,Clear,320,2012-11-25 03:35:00
7:50 PM,51.8,19.4,28,30.06,10.0,NW,6.9,-,N/A,,Clear,310,2012-11-25 03:50:00
8:15 PM,50.0,19.4,30,30.06,10.0,NW,8.1,-,N/A,,Clear,320,2012-11-25 04:15:00
8:35 PM,50.0,17.6,28,30.06,10.0,NW,9.2,-,N/A,,Clear,320,2012-11-25 04:35:00
8:50 PM,50.0,17.6,28,30.06,10.0,NW,8.1,-,N/A,,Clear,320,2012-11-25 04:50:00
9:15 PM,50.0,19.4,30,30.06,10.0,NW,9.2,-,N/A,,Clear,320,2012-11-25 05:15:00
9:35 PM,50.0,19.4,30,30.06,10.0,NW,9.2,-,N/A,,Clear,320,2012-11-25 05:35:00
9:50 PM,50.0,19.4,30,30.06,10.0,NNW,6.9,-,N/A,,Clear,330,2012-11-25 05:50:00
10:10 PM,50.0,19.4,30,30.05,10.0,NNW,6.9,-,N/A,,Clear,330,2012-11-25 06:10:00
10:30 PM,48.2,19.4,32,30.05,10.0,NNW,6.9,-,N/A,,Clear,330,2012-11-25 06:30:00
10:55 PM,48.2,19.4,32,30.05,10.0,Calm,Calm,-,N/A,,Clear,0,2012-11-25 06:55:00
11:15 PM,48.2,17.6,30,30.05,10.0,Calm,Calm,-,N/A,,Clear,0,2012-11-25 07:15:00
11:35 PM,48.2,17.6,30,30.04,10.0,Calm,Calm,-,N/A,,Clear,0,2012-11-25 07:35:00
11:55 PM,48.2,17.6,30,30.03,10.0,Calm,Calm,-,N/A,,Clear,0,2012-11-25 07:55:00